Peotone Weather
Station Historical Data
 
Daily Summary for February 23, 2019 Units:  English    Metric   Both
« Previous Day
Next Day »
Daily Weekly Monthly Yearly Custom
  Current: High: Low: Average:
Temperature: 33.7 °F 33.7 °F 33.2 °F 33.4 °F
Dew Point: 26.6 °F 26.9 °F 25.8 °F 26.5 °F
Humidity: 75% 77% 74% 76%
Wind Speed: 9.2mph 12.6mph 3.4mph 7.6mph
Wind Gust: 12.6mph 17.2mph - -
WindEast - - East
Pressure: 30.11 in 30.24 in 30.11 in -
Precipitation: 0.00 in      
Historical Graphs
 
 
Tabular Data for February 23, 2019
Time Temperature Dew Point Pressure Wind Wind Speed Wind Gust Humidity Rainfall Rate (Hourly) solar Conditions
00:00 33.2 °F 25.8 °F 30.24 in East 6.9 mph 11.5 mph 74% 0.00 in 0.00 W/m2
00:04 33.3 °F 25.9 °F 30.24 in East 6.9 mph 12.6 mph 74% 0.00 in 0.00 W/m2
00:05 33.3 °F 25.9 °F 30.24 in East 9.2 mph 12.6 mph 74% 0.00 in 0.00 W/m2
00:09 33.3 °F 25.9 °F 30.24 in ENE 5.8 mph 10.3 mph 74% 0.00 in 0.00 W/m2
00:14 33.3 °F 25.9 °F 30.24 in ESE 3.4 mph 14.9 mph 74% 0.00 in 0.00 W/m2
00:19 33.3 °F 25.9 °F 30.24 in ESE 11.5 mph 11.5 mph 74% 0.00 in 0.00 W/m2
00:24 33.4 °F 26.0 °F 30.24 in East 9.2 mph 13.8 mph 74% 0.00 in 0.00 W/m2
00:29 33.4 °F 26.0 °F 30.23 in East 5.8 mph 14.9 mph 74% 0.00 in 0.00 W/m2
00:34 33.3 °F 25.9 °F 30.23 in East 12.6 mph 13.8 mph 74% 0.00 in 0.00 W/m2
00:39 33.4 °F 26.0 °F 30.23 in East 8.1 mph 12.6 mph 74% 0.00 in 0.00 W/m2
00:44 33.4 °F 26.0 °F 30.23 in East 3.4 mph 16.1 mph 74% 0.00 in 0.00 W/m2
00:49 33.3 °F 26.2 °F 30.23 in ENE 10.3 mph 11.5 mph 75% 0.00 in 0.00 W/m2
00:54 33.3 °F 26.2 °F 30.23 in East 8.1 mph 9.2 mph 75% 0.00 in 0.00 W/m2
00:59 33.3 °F 26.2 °F 30.23 in ENE 3.4 mph 12.6 mph 75% 0.00 in 0.00 W/m2
01:04 33.3 °F 26.2 °F 30.23 in ENE 5.8 mph 10.3 mph 75% 0.00 in 0.00 W/m2
01:09 33.3 °F 26.2 °F 30.22 in East 6.9 mph 12.6 mph 75% 0.00 in 0.00 W/m2
01:14 33.3 °F 26.2 °F 30.22 in ESE 10.3 mph 14.9 mph 75% 0.00 in 0.00 W/m2
01:19 33.3 °F 26.2 °F 30.21 in East 8.1 mph 16.1 mph 75% 0.00 in 0.00 W/m2
01:24 33.3 °F 26.2 °F 30.21 in ENE 9.2 mph 13.8 mph 75% 0.00 in 0.00 W/m2
01:29 33.3 °F 26.6 °F 30.21 in ENE 10.3 mph 10.3 mph 76% 0.00 in 0.00 W/m2
01:34 33.2 °F 26.5 °F 30.21 in East 9.2 mph 11.5 mph 76% 0.00 in 0.00 W/m2
01:39 33.3 °F 26.6 °F 30.21 in ESE 9.2 mph 11.5 mph 76% 0.00 in 0.00 W/m2
01:44 33.3 °F 26.6 °F 30.21 in East 5.8 mph 13.8 mph 76% 0.00 in 0.00 W/m2
01:49 33.3 °F 26.6 °F 30.21 in East 3.4 mph 11.5 mph 76% 0.00 in 0.00 W/m2
01:54 33.3 °F 26.6 °F 30.21 in East 8.1 mph 10.3 mph 76% 0.00 in 0.00 W/m2
01:59 33.3 °F 26.6 °F 30.20 in ENE 3.4 mph 11.5 mph 76% 0.00 in 0.00 W/m2
02:04 33.3 °F 26.2 °F 30.20 in ENE 9.2 mph 16.1 mph 75% 0.00 in 0.00 W/m2
02:09 33.4 °F 26.7 °F 30.20 in ESE 4.6 mph 14.9 mph 76% 0.00 in 0.00 W/m2
02:14 33.4 °F 26.7 °F 30.20 in East 6.9 mph 11.5 mph 76% 0.00 in 0.00 W/m2
02:19 33.4 °F 26.7 °F 30.19 in East 3.4 mph 12.6 mph 76% 0.00 in 0.00 W/m2
02:24 33.4 °F 26.7 °F 30.19 in ESE 9.2 mph 13.8 mph 76% 0.00 in 0.00 W/m2
02:29 33.3 °F 26.6 °F 30.19 in East 6.9 mph 11.5 mph 76% 0.00 in 0.00 W/m2
02:34 33.3 °F 26.6 °F 30.18 in ESE 5.8 mph 10.3 mph 76% 0.00 in 0.00 W/m2
02:39 33.3 °F 26.6 °F 30.18 in ESE 10.3 mph 11.5 mph 76% 0.00 in 0.00 W/m2
02:44 33.3 °F 26.6 °F 30.17 in East 9.2 mph 13.8 mph 76% 0.00 in 0.00 W/m2
02:49 33.3 °F 26.6 °F 30.18 in East 5.8 mph 11.5 mph 76% 0.00 in 0.00 W/m2
02:54 33.3 °F 26.9 °F 30.17 in ESE 10.3 mph 10.3 mph 77% 0.00 in 0.00 W/m2
02:59 33.3 °F 26.9 °F 30.17 in East 5.8 mph 12.6 mph 77% 0.00 in 0.00 W/m2
03:04 33.3 °F 26.9 °F 30.16 in East 5.8 mph 12.6 mph 77% 0.00 in 0.00 W/m2
03:09 33.3 °F 26.9 °F 30.16 in East 8.1 mph 13.8 mph 77% 0.00 in 0.00 W/m2
03:14 33.4 °F 26.7 °F 30.15 in ESE 5.8 mph 13.8 mph 76% 0.00 in 0.00 W/m2
03:19 33.4 °F 26.7 °F 30.15 in East 5.8 mph 13.8 mph 76% 0.00 in 0.00 W/m2
03:24 33.4 °F 26.7 °F 30.15 in ENE 9.2 mph 12.6 mph 76% 0.00 in 0.00 W/m2
03:29 33.5 °F 26.8 °F 30.15 in East 10.3 mph 14.9 mph 76% 0.00 in 0.00 W/m2
03:34 33.5 °F 26.8 °F 30.14 in ENE 11.5 mph 13.8 mph 76% 0.00 in 0.00 W/m2
03:38 33.5 °F 26.8 °F 30.14 in ESE 9.2 mph 13.8 mph 76% 0.00 in 0.00 W/m2
03:44 33.6 °F 26.9 °F 30.14 in East 9.2 mph 12.6 mph 76% 0.00 in 0.00 W/m2
03:49 33.6 °F 26.9 °F 30.14 in East 6.9 mph 10.3 mph 76% 0.00 in 0.00 W/m2
03:54 33.6 °F 26.9 °F 30.14 in East 12.6 mph 16.1 mph 76% 0.00 in 0.00 W/m2
03:59 33.6 °F 26.9 °F 30.13 in ESE 8.1 mph 13.8 mph 76% 0.00 in 0.00 W/m2
04:04 33.6 °F 26.9 °F 30.13 in East 10.3 mph 13.8 mph 76% 0.00 in 0.00 W/m2
04:09 33.7 °F 26.6 °F 30.12 in East 5.8 mph 11.5 mph 75% 0.00 in 0.00 W/m2
04:14 33.6 °F 26.9 °F 30.12 in East 3.4 mph 17.2 mph 76% 0.00 in 0.00 W/m2
04:19 33.7 °F 26.9 °F 30.12 in East 10.3 mph 14.9 mph 76% 0.00 in 0.00 W/m2
04:24 33.7 °F 26.9 °F 30.12 in ESE 8.1 mph 14.9 mph 76% 0.00 in 0.00 W/m2
04:29 33.7 °F 26.9 °F 30.11 in ENE 4.6 mph 12.6 mph 76% 0.00 in 0.00 W/m2
04:34 33.6 °F 26.9 °F 30.11 in East 8.1 mph 12.6 mph 76% 0.00 in 0.00 W/m2
04:39 33.7 °F 26.6 °F 30.11 in East 6.9 mph 12.6 mph 75% 0.00 in 0.00 W/m2
04:44 33.7 °F 26.6 °F 30.11 in East 3.4 mph 11.5 mph 75% 0.00 in 0.00 W/m2
04:49 33.7 °F 26.6 °F 30.11 in ESE 8.1 mph 11.5 mph 75% 0.00 in 0.00 W/m2
04:54 33.7 °F 26.6 °F 30.11 in East 9.2 mph 12.6 mph 75% 0.00 in 0.00 W/m2
Juneau County Weather
Compliments of Weather Underground - 2 mb